This demonstration page uses our WeatherBlox Daily Observations layout. Learn more.

Left ArrowRight Arrow

Hourly Observations for November 16, 2018

Temp ( °F °C ) Dew Point ( °F °C ) Humidity (%) Winds ( mph kmh ) Pressure ( in mb ) Visibility ( mi km ) Precip ( " mm )
12:53 am 00:53 Cloudy with Light Rain 40 4.4 33 0.6 77 77 W 8 13 29.86 1011 10 16 0.00 0.03
1:53 am 01:53 Cloudy with Light Rain 41 5 38 3.3 89 89 WNW 8 13 29.86 1011 9 14 0.04 1.02
2:53 am 02:53 Cloudy with Light Rain 40 4.4 38 3.3 93 93 WNW 6 9 29.88 1012 10 16 0.01 0.25
3:53 am 03:53 Cloudy 39 3.9 38 3.3 96 96 WSW 6 9 29.88 1012 10 16 0.00 0.03
4:53 am 04:53 Cloudy with Light Rain 38 3.3 37 2.8 97 97 WSW 5 7 29.91 1013 10 16 0.00 0.03
5:49 am 05:49 Cloudy with Light Rain 37 3 37 3 100 100 WNW 5 7 29.97 1015 10 16 0.01 0.25
5:53 am 05:53 Cloudy with Light Rain 38 3.3 37 2.8 97 97 WNW 7 11 29.96 1015 10 16 0.01 0.25
6:39 am 06:39 Cloudy 38 3.3 36 2.2 93 93 NW 6 9 29.97 1015 10 16 0.01 0.25
6:53 am 06:53 Cloudy 38 3.3 36 2.2 93 93 NW 5 7 29.99 1016 10 16 0.01 0.25
7:15 am 07:15 Cloudy 37 2.8 36 2.2 96 96 NW 9 15 30.06 1018 10 16 0.00 0.00
7:53 am 07:53 Cloudy 35 1.7 33 0.6 93 93 NE 18 30 30.06 1018 10 16 0.00 0.00
8:53 am 08:53 Windy with Snow Likely 31 -0.6 28 -2.2 89 89 NE 22 35 30.16 1021 5 8 0.00 0.03
9:23 am 09:23 Cloudy with Light Snow 29 -1.7 25 -3.9 85 85 ENE 17 28 30.27 1025 2 3 0.00 0.03
9:32 am 09:32 Cloudy with Light Snow 28 -2 27 -3 93 93 NE 18 30 30.27 1025 1 2 0.00 0.00
9:53 am 09:53 Cloudy with Light Snow 27 -2.8 23 -5 85 85 NE 17 28 30.26 1025 1 2 0.00 0.03
9:56 am 09:56 Windy with Snow Likely 27 -3 23 -5 86 86 NE 22 35 30.30 1026 2 3 0.00 0.00
10:05 am 10:05 Windy with Snow Likely 27 -2.8 22 -5.6 81 81 NNE 23 37 30.33 1027 3 4 0.00 0.03
10:15 am 10:15 Windy with Snow Likely 26 -3.3 21 -6.1 81 81 ENE 23 37 30.36 1028 4 6 0.00 0.03
10:38 am 10:38 Cloudy with Light Snow 25 -4 19 -7 80 80 NE 17 28 30.39 1029 3 4 0.00 0.00
10:46 am 10:46 Windy with Snow Likely 25 -4 19 -7 80 80 NNE 23 37 30.39 1029 7 11 0.00 0.00
10:53 am 10:53 Windy with Snow Likely 25 -3.9 19 -7.2 78 78 NE 22 35 30.34 1027 9 14 0.00 0.03
11:53 am 11:53 Cloudy with Light Snow 23 -5 19 -7.2 85 85 ENE 15 24 30.40 1029 2 3 0.00 0.03
12:10 pm 12:10 Cloudy with Light Snow 25 -4 19 -7 80 80 NNE 13 20 30.48 1032 1 2 0.00 0.00
12:50 pm 12:50 Cloudy with Light Snow 23 -5 18 -8 80 80 N 15 24 30.53 1034 2 2 0.00 0.00
12:53 pm 12:53 Cloudy with Light Snow 23 -5 18 -7.8 81 81 N 14 22 30.44 1031 1 2 0.01 0.25
1:03 pm 13:03 Cloudy with Light Snow 23 -5 18 -7.8 81 81 N 10 17 30.53 1034 2 3 0.00 0.03
1:19 pm 13:19 Cloudy with Light Snow 23 -5 17 -8.3 78 78 NNE 13 20 30.53 1034 3 5 0.00 0.03
1:40 pm 13:40 Cloudy with Light Snow 21 -6 16 -9 80 80 NNE 16 26 30.53 1034 8 13 0.00 0.00
1:53 pm 13:53 Cloudy 22 -5.6 14 -10 71 71 NNE 14 22 30.47 1032 9 14 0.00 0.03
2:42 pm 14:42 Cloudy 21 -6 14 -10 74 74 NNE 8 13 30.56 1035 10 16 0.00 0.00
2:53 pm 14:53 Cloudy 22 -5.6 14 -10 71 71 NNE 9 15 30.50 1033 10 16 0.00 0.00
3:10 pm 15:10 Cloudy with Light Snow 21 -6 14 -10 74 74 NNE 9 15 30.56 1035 4 6 0.00 0.00
3:33 pm 15:33 Cloudy with Light Snow 20 -6.7 15 -9.4 81 81 NE 7 11 30.59 1036 2 3 0.00 0.03
3:40 pm 15:40 Cloudy with Light Snow 19 -7 16 -9 86 86 ENE 7 11 30.62 1037 1 2 0.00 0.00
3:53 pm 15:53 Cloudy with Light Snow 20 -6.7 15 -9.4 81 81 NE 7 11 30.54 1034 1 2 0.01 0.25
4:00 pm 16:00 Cloudy with Light Snow 19 -7 16 -9 86 86 NE 8 13 30.62 1037 2 2 0.00 0.00
4:11 pm 16:11 Cloudy with Light Snow 20 -6.7 15 -9.4 81 81 ENE 8 13 30.62 1037 1 2 0.00 0.03
4:41 pm 16:41 Mostly Cloudy with Light Snow 19 -7.2 16 -8.9 88 88 NE 8 13 30.65 1038 1 1 0.00 0.03
4:48 pm 16:48 Cloudy with Light Snow 19 -7 16 -9 86 86 NE 6 9 30.65 1038 1 2 0.00 0.00
4:53 pm 16:53 Cloudy with Light Snow 19 -7.2 15 -9.4 84 84 NE 7 11 30.57 1035 1 2 0.01 0.25
5:01 pm 17:01 Mostly Cloudy with Light Snow 19 -7.2 15 -9.4 84 84 ENE 5 7 30.65 1038 1 2 0.00 0.03
5:40 pm 17:40 Cloudy with Light Snow 18 -8 16 -9 93 93 N 6 9 30.65 1038 1 2 0.00 0.00
5:49 pm 17:49 Cloudy with Light Snow 18 -8 16 -9 93 93 NNW 7 11 30.68 1039 1 2 0.02 0.51
5:53 pm 17:53 Cloudy with Light Snow 17 -8.3 15 -9.4 92 92 NNW 9 15 30.59 1036 1 2 0.02 0.51
6:00 pm 18:00 Cloudy with Light Snow 18 -8 14 -10 86 86 NW 7 11 30.68 1039 2 3 0.00 0.00
6:11 pm 18:11 Cloudy with Light Snow 17 -8.3 13 -10.6 84 84 NW 8 13 30.68 1039 4 6 0.00 0.03
6:36 pm 18:36 Cloudy with Light Snow 16 -9 12 -11 86 86 NNW 10 17 30.71 1040 6 10 0.00 0.00
6:53 pm 18:53 Cloudy with Light Snow 16 -8.9 11 -11.7 80 80 NW 10 17 30.60 1036 3 5 0.00 0.03
7:06 pm 19:06 Cloudy with Light Snow 16 -9 10 -12 79 79 NW 12 19 30.71 1040 3 4 0.00 0.00
7:31 pm 19:31 Cloudy with Light Snow 15 -9.4 11 -11.7 84 84 NW 10 17 30.71 1040 3 5 0.00 0.03
7:53 pm 19:53 Cloudy with Light Snow 14 -10 10 -12.2 84 84 NW 12 19 30.62 1037 3 5 0.00 0.03
8:53 pm 20:53 Cloudy with Light Snow 14 -10 10 -12.2 84 84 NNW 7 11 30.63 1037 4 6 0.00 0.03
9:24 pm 21:24 Cloudy with Light Snow 16 -9 10 -12 79 79 NNW 3 6 30.71 1040 2 3 0.00 0.00
9:51 pm 21:51 Cloudy with Light Snow 16 -9 12 -11 86 86 Calm 30.71 1040 3 5 0.00 0.03
9:53 pm 21:53 Cloudy with Light Snow 15 -9.4 12 -11.1 88 88 NNE 3 6 30.64 1038 3 4 0.00 0.03
10:26 pm 22:26 Cloudy with Light Snow 14 -10 11 -11.7 88 88 Calm 30.74 1041 3 5 0.01 0.25
10:53 pm 22:53 Cloudy with Light Snow 14 -10 11 -11.7 88 88 Calm 30.65 1038 3 4 0.01 0.25
11:14 pm 23:14 Cloudy with Light Snow 12 -11 9 -13 85 85 N 5 7 30.77 1042 4 6 0.00 0.00
11:45 pm 23:45 Partly Cloudy 9 -12.8 6 -14.4 88 88 Calm 30.74 1041 10 16 0.00 0.03
11:53 pm 23:53 Mostly Clear 10 -12.2 6 -14.4 84 84 Calm 30.65 1038 10 16 0.00 0.03

Powered by AerisWeather